This is the latest recevied weather packets stored in our database for station/object GOLDWX. If no packets are shown the sender has not sent any weather packets the latest 10 day(s).
| Time | Temp. | Humidity | Pressure | Rain* | Wind** | Luminosity | Snow |
|---|---|---|---|---|---|---|---|
| 1777447681 | 7.22° C | 73% | 1019.1 hPa | 0.25 mm | - | - | - |
| 1777447079 | 7.22° C | 74% | 1019.1 hPa | 0.25 mm | - | - | - |
| 1777446779 | 7.22° C | 73% | 1019.1 hPa | 0.25 mm | - | - | - |
| 1777446218 | 7.78° C | 73% | 1019.1 hPa | 0.25 mm | - | - | - |
| 1777446177 | 7.78° C | 73% | 1019.1 hPa | 0.25 mm | - | - | - |
| 1777445876 | 7.78° C | 72% | 1019 hPa | 0.25 mm | - | - | - |
| 1777445274 | 7.78° C | 71% | 1019.1 hPa | 0.25 mm | - | - | - |
| 1777444974 | 7.78° C | 71% | 1019.1 hPa | 0.25 mm | - | - | - |
| 1777444372 | 7.78° C | 71% | 1019.1 hPa | 0.25 mm | - | - | - |
| 1777444070 | 7.78° C | 70% | 1019 hPa | 0.25 mm | - | - | - |
| 1777443468 | 7.78° C | 69% | 1019 hPa | 0.25 mm | - | - | - |
| 1777443168 | 7.78° C | 68% | 1019.1 hPa | 0.25 mm | - | - | - |
| 1777442597 | 7.78° C | 68% | 1019.1 hPa | 0.25 mm | - | - | - |
| 1777442566 | 7.78° C | 68% | 1019.1 hPa | 0.25 mm | - | - | - |
| 1777442265 | 7.78° C | 67% | 1019.1 hPa | 0.25 mm | - | - | - |
| 1777441663 | 7.78° C | 74% | 1019 hPa | 0.25 mm | - | - | - |
| 1777441432 | 7.78° C | 76% | 1019 hPa | 0.25 mm | - | - | - |
| 1777441363 | 7.78° C | 76% | 1019 hPa | 0.25 mm | - | - | - |
| 1777440761 | 7.78° C | 76% | 1019.2 hPa | 0.25 mm | - | - | - |
| 1777440460 | 7.78° C | 76% | 1019.1 hPa | 0.25 mm | - | - | - |
| 1777439858 | 7.78° C | 73% | 1019.2 hPa | 0.25 mm | - | - | - |
| 1777439558 | 7.78° C | 79% | 1019.3 hPa | 0.25 mm | - | - | - |
| 1777438956 | 8.33° C | 75% | 1019.6 hPa | 0.25 mm | - | - | - |
| 1777438655 | 8.33° C | 75% | 1019.7 hPa | 0.25 mm | - | - | - |
| 1777438053 | 8.33° C | 69% | 1019.9 hPa | 0.25 mm | - | - | - |
* Rain since midnight (hover to see other rain measurements)
** Current wind speed in m/s (hover to see current wind gust speed)